Date String (YYYY-MM-DD hh:mm:ss) UTC,Instrument flags,Ambient pressure (hPa),Sample flow (lpm),Bypass flow (lpm),Sample temperature (°C),Ambient temperature (°C),ASC tube jacket temperature (°C),LED temperature (°C),Box temperature (°C),Sample RH (%),Span deviation,Mass concentration (μg/m³),Mass concentration (μg/m³),Mass concentration (μg/m³)
DateTimeUTC,F1_M11,P_M11,Q1_M11,Q2_M11,T1_M11,T2_M11,T3_M11,T4_M11,T5_M11,U1_M11,ZSPAN_M11,X0_M11,X2_M11,X1_M11
2022-12-26 12:00:00,,0830.6,5.01,0.00,21.4,20.0,00.0,30.2,23.0,19.1,0000.0,0003.29,0002.28,0002.03
2022-12-26 12:01:00,,0830.6,4.96,0.00,21.3,19.9,00.0,30.2,23.0,19.1,0000.0,0003.34,0002.31,0002.05
2022-12-26 12:02:00,,0830.6,4.99,0.00,21.3,19.7,00.0,30.2,22.9,19.2,0000.0,0003.37,0002.34,0002.07
2022-12-26 12:03:00,,0830.6,5.01,0.00,21.3,19.5,00.0,30.2,22.8,19.2,0000.0,0003.37,0002.36,0002.08
2022-12-26 12:04:00,,0830.6,5.02,0.00,21.2,19.5,00.0,30.2,22.8,19.2,0000.0,0003.90,0002.31,0002.08
2022-12-26 12:05:00,,0830.6,5.02,0.00,21.2,19.5,00.0,30.2,22.8,19.2,0000.0,0004.10,0002.29,0002.09
2022-12-26 12:06:00,,0830.5,5.00,0.00,21.2,19.5,00.0,30.2,22.8,19.2,0000.0,0004.12,0002.29,0002.09
2022-12-26 12:07:00,,0830.6,4.98,0.00,21.2,19.4,00.0,30.2,22.8,19.2,0000.0,0004.24,0002.30,0002.09
2022-12-26 12:08:00,,0830.6,4.98,0.00,21.1,19.4,00.0,30.1,22.8,19.2,0000.0,0004.30,0002.32,0002.09
2022-12-26 12:09:00,,0830.6,5.03,0.00,21.1,19.4,00.0,30.1,22.8,19.2,0000.0,0004.37,0002.35,0002.09
2022-12-26 12:10:00,,0830.5,5.03,0.00,21.1,19.5,00.0,30.1,22.8,19.2,0000.0,0004.42,0002.39,0002.11
2022-12-26 12:11:00,,0830.5,5.01,0.00,21.1,19.5,00.0,30.1,22.8,19.1,0000.0,0004.11,0002.40,0002.11
2022-12-26 12:12:00,,0830.5,4.98,0.00,21.1,19.5,00.0,30.1,22.8,19.2,0000.0,0004.19,0002.42,0002.11
2022-12-26 12:13:00,,0830.4,4.99,0.00,21.1,19.5,00.0,30.1,22.8,19.2,0000.0,0004.24,0002.41,0002.10
2022-12-26 12:14:00,,0830.5,5.02,0.00,21.1,19.6,00.0,30.1,22.8,19.2,0000.0,0005.10,0002.40,0002.08
2022-12-26 12:15:00,,0830.6,5.01,0.00,21.2,20.4,00.0,30.0,23.0,19.1,0000.0,0005.20,0002.41,0002.09
2022-12-26 12:16:00,,0830.6,4.95,0.00,21.3,21.5,00.0,30.0,23.3,19.0,0000.0,0004.79,0002.42,0002.08
2022-12-26 12:17:00,,0830.6,5.03,0.00,21.4,21.7,00.0,30.1,23.4,18.8,0000.0,0004.81,0002.43,0002.08
2022-12-26 12:18:00,,0830.7,5.03,0.00,21.4,21.4,00.0,30.1,23.4,18.7,0000.0,0004.68,0002.41,0002.07
2022-12-26 12:19:00,,0830.8,4.98,0.00,21.5,21.1,00.0,30.2,23.4,18.7,0000.0,0004.62,0002.40,0002.07
2022-12-26 12:20:00,,0830.8,4.97,0.00,21.5,20.9,00.0,30.2,23.3,18.7,0000.0,0004.63,0002.41,0002.07
2022-12-26 12:21:00,,0830.8,5.00,0.00,21.5,20.8,00.0,30.2,23.4,18.8,0000.0,0004.54,0002.36,0002.07
2022-12-26 12:22:00,,0830.8,5.02,0.00,21.5,20.7,00.0,30.2,23.4,18.8,0000.0,0004.48,0002.33,0002.08
2022-12-26 12:23:00,,0830.7,5.02,0.00,21.5,20.6,00.0,30.3,23.4,18.8,0000.0,0004.41,0002.31,0002.07
2022-12-26 12:24:00,,0830.6,4.98,0.00,21.5,20.6,00.0,30.3,23.4,18.7,0000.0,0004.34,0002.32,0002.08
2022-12-26 12:25:00,,0830.6,4.96,0.00,21.6,20.6,00.0,30.3,23.4,18.7,0000.0,0003.75,0002.33,0002.08
2022-12-26 12:26:00,,0830.6,5.00,0.00,21.6,20.5,00.0,30.3,23.4,18.7,0000.0,0003.04,0002.36,0002.11
2022-12-26 12:27:00,,0830.6,5.01,0.00,21.6,20.5,00.0,30.3,23.4,18.7,0000.0,0003.06,0002.37,0002.13
2022-12-26 12:28:00,,0830.5,5.03,0.00,21.6,20.4,00.0,30.3,23.3,18.7,0000.0,0003.09,0002.40,0002.14
2022-12-26 12:29:00,,0830.5,4.98,0.00,21.5,20.3,00.0,30.3,23.3,18.8,0000.0,0003.25,0002.45,0002.15
2022-12-26 12:30:00,,0830.5,4.98,0.00,21.5,20.1,00.0,30.4,23.2,18.8,0000.0,0003.39,0002.52,0002.19
2022-12-26 12:31:00,,0830.5,4.99,0.00,21.5,20.0,00.0,30.4,23.2,18.8,0000.0,0003.46,0002.57,0002.21
2022-12-26 12:32:00,,0830.5,5.02,0.00,21.5,20.0,00.0,30.4,23.1,18.8,0000.0,0003.53,0002.60,0002.22
2022-12-26 12:33:00,,0830.6,5.02,0.00,21.5,20.0,00.0,30.4,23.1,18.9,0000.0,0003.61,0002.64,0002.23
2022-12-26 12:34:00,,0830.6,5.00,0.00,21.4,20.0,00.0,30.3,23.1,18.9,0000.0,0003.68,0002.68,0002.26
2022-12-26 12:35:00,,0830.6,4.97,0.00,21.4,20.0,00.0,30.3,23.2,18.9,0000.0,0003.64,0002.67,0002.28
2022-12-26 12:36:00,,0830.6,4.98,0.00,21.4,20.0,00.0,30.3,23.2,18.9,0000.0,0003.60,0002.66,0002.29
2022-12-26 12:37:00,,0830.8,5.00,0.00,21.4,20.0,00.0,30.3,23.2,18.9,0000.0,0003.62,0002.66,0002.28
2022-12-26 12:38:00,,0830.8,5.03,0.00,21.4,20.0,00.0,30.3,23.2,18.9,0000.0,0003.79,0002.67,0002.27
2022-12-26 12:39:00,,0830.9,5.01,0.00,21.4,20.1,00.0,30.3,23.2,18.8,0000.0,0003.92,0002.67,0002.27
2022-12-26 12:40:00,,0831.0,4.98,0.00,21.4,20.1,00.0,30.3,23.2,18.8,0000.0,0003.75,0002.61,0002.26
2022-12-26 12:41:00,,0831.1,4.99,0.00,21.5,20.2,00.0,30.3,23.3,18.7,0000.0,0003.65,0002.55,0002.24
2022-12-26 12:42:00,,0831.0,5.00,0.00,21.5,20.2,00.0,30.3,23.3,18.7,0000.0,0003.51,0002.49,0002.22
2022-12-26 12:43:00,,0830.9,5.01,0.00,21.5,20.2,00.0,30.3,23.3,18.6,0000.0,0003.51,0002.50,0002.23
2022-12-26 12:44:00,,0830.9,5.02,0.00,21.5,20.2,00.0,30.3,23.3,18.6,0000.0,0003.51,0002.51,0002.23
2022-12-26 12:45:00,,0830.9,4.98,0.00,21.5,20.2,00.0,30.3,23.3,18.5,0000.0,0003.68,0002.53,0002.23
2022-12-26 12:46:00,,0830.9,4.99,0.00,21.5,20.2,00.0,30.3,23.3,18.4,0000.0,0004.72,0002.57,0002.24
2022-12-26 12:47:00,,0830.9,5.00,0.00,21.5,20.2,00.0,30.3,23.3,18.3,0000.0,0005.47,0002.59,0002.24
2022-12-26 12:48:00,,0830.9,5.03,0.00,21.5,20.2,00.0,30.3,23.3,18.3,0000.0,0005.48,0002.62,0002.28
2022-12-26 12:49:00,,0830.9,5.02,0.00,21.5,20.2,00.0,30.3,23.3,18.3,0000.0,0005.42,0002.67,0002.31
2022-12-26 12:50:00,,0830.9,4.99,0.00,21.5,20.2,00.0,30.3,23.3,18.5,0000.0,0005.44,0002.73,0002.38
2022-12-26 12:51:00,,0830.9,4.97,0.00,21.5,20.2,00.0,30.3,23.3,18.6,0000.0,0005.52,0002.79,0002.44
2022-12-26 12:52:00,,0830.9,5.00,0.00,21.5,20.3,00.0,30.4,23.3,18.6,0000.0,0005.73,0002.91,0002.50
2022-12-26 12:53:00,,0830.9,5.01,0.00,21.5,20.3,00.0,30.4,23.3,18.7,0000.0,0005.81,0002.97,0002.56
2022-12-26 12:54:00,,0830.9,5.02,0.00,21.5,20.3,00.0,30.4,23.3,18.7,0000.0,0005.82,0003.01,0002.60
2022-12-26 12:55:00,,0830.9,5.00,0.00,21.5,20.4,00.0,30.4,23.3,18.7,0000.0,0005.89,0003.02,0002.62
2022-12-26 12:56:00,,0830.9,4.96,0.00,21.5,20.4,00.0,30.4,23.3,18.7,0000.0,0005.83,0003.03,0002.65
2022-12-26 12:57:00,,0831.0,5.01,0.00,21.5,20.4,00.0,30.4,23.3,18.7,0000.0,0004.88,0003.06,0002.69
2022-12-26 12:58:00,,0831.0,5.02,0.00,21.5,20.4,00.0,30.4,23.3,18.7,0000.0,0004.26,0003.07,0002.71
2022-12-26 12:59:00,,0831.1,5.01,0.00,21.5,20.4,00.0,30.4,23.3,18.7,0000.0,0004.26,0003.07,0002.72
